SCP
0 0 0 0 0 0 0 0 0 0 1 1 1 1 1 1 2 2 2 2 2 2 2 2 2 2 2 3 3 3 3 3 3 2 2 2 1 1 1 1 1 1 1 1
0 0 0 0 0 0 0 0 0 0 1 1 1 1 1 1 1 1 2 2 2 2 2 2 2 1 2 2 2 2 3 2 2 2 1 1 1 1 1 1 1 1 1 1
0 0 0 0 0 0 0 0 0 0 0 0 0 1 1 1 1 1 1 2 2 2 1 1 1 1 1 1 1 2 2 2 1 1 1 1 1 1 1 1 1 1 1 1
0 0 0 0 0 0 0 0 0 0 0 0 0 0 1 1 1 1 1 1 1 1 1 1 1 1 1 1 1 1 2 2 1 1 1 1 1 1 1 1 1 1 1 1
0 0 0 0 0 0 0 0 0 0 0 0 0 0 0 1 1 1 1 1 1 1 1 1 1 1 1 1 1 1 1 2 2 2 2 1 1 1 1 1 1 1 1 1
0 0 0 0 0 0 0 0 0 0 0 0 0 0 0 0 0 0 1 1 1 1 0 0 0 0 1 1 1 1 1 2 2 2 2 2 1 1 1 1 1 1 1 1
0 0 0 0 0 0 0 0 0 0 0 0 0 0 0 0 0 0 0 1 1 1 1 0 1 1 1 1 1 1 1 1 2 2 2 2 2 1 1 1 1 1 1 1
0 0 0 0 0 0 0 0 0 0 0 0 0 0 0 0 0 0 0 1 1 1 1 1 1 1 1 1 1 1 1 1 1 1 1 1 2 2 1 1 1 1 0 0
0 0 0 0 0 0 0 0 0 0 0 0 0 0 0 0 0 0 1 1 1 1 1 1 1 1 1 1 1 1 1 1 1 1 1 1 1 1 1 1 0 0 0 0
0 0 0 0 0 0 0 0 0 0 0 0 0 0 0 0 0 0 1 1 1 1 1 1 1 1 1 1 1 1 1 1 1 1 1 1 1 1 0 0 0 0 0 0
0 0 0 0 0 0 0 0 0 0 0 0 0 0 0 0 0 0 0 1 0 0 0 1 1 1 1 1 1 1 1 1 1 1 1 0 0 0 0 0 0 0 0 0
0 0 0 0 0 0 0 0 0 0 0 0 0 0 0 0 0 0 0 0 0 0 0 0 1 1 1 1 1 1 1 1 1 1 0 0 0 0 0 0 0 0 0 0
0 0 0 0 0 0 0 0 0 0 0 0 0 0 0 0 0 0 0 0 0 0 0 1 1 1 1 1 1 1 1 1 0 0 0 0 0 0 0 0 0 0 0 0
0 0 0 0 0 0 0 0 0 0 0 0 0 0 0 0 0 0 0 0 0 1 1 1 1 1 1 1 1 0 0 0 0 0 0 0 0 0 0 0 0 0 0 0
0 0 0 0 0 0 0 0 0 0 0 0 0 0 0 0 0 0 0 0 0 1 1 1 1 1 1 1 1 0 0 0 0 0 0 0 0 0 0 0 0 0 0 0
0 0 0 0 0 0 0 0 0 0 0 0 0 0 0 0 0 0 0 0 0 1 1 1 1 1 1 1 1 0 0 0 0 0 0 0 0 0 0 0 0 0 0 0
0 0 0 0 0 0 0 0 0 0 0 0 0 0 0 0 0 0 0 0 0 0 0 0 1 1 1 1 1 0 0 0 0 0 0 0 0 0 0 0 0 0 0 0
0 0 0 0 0 0 0 0 0 0 0 0 0 0 0 0 0 0 0 0 0 0 0 0 1 1 1 1 1 1 1 1 0 0 0 0 0 0 0 0 0 0 0 0
0 0 0 0 0 0 0 0 0 0 0 0 0 0 0 0 0 0 0 0 0 0 0 0 0 0 1 1 1 1 1 1 0 0 0 0 0 0 0 0 0 0 0 0
0 0 0 0 0 0 0 0 0 0 0 0 0 0 0 0 0 0 0 0 0 0 0 0 0 0 0 1 1 1 1 1 0 0 0 0 0 0 0 0 0 0 0 0
0 0 0 0 0 0 0 0 0 0 1 1 0 0 0 0 0 0 0 0 0 0 0 0 0 0 0 0 1 1 1 0 0 0 0 0 0 0 0 0 0 0 0 0
0 0 0 0 0 0 0 0 0 1 1 1 0 0 0 0 0 0 0 0 0 0 0 0 0 0 0 0 0 0 0 0 0 0 0 0 0 0 0 0 0 0 0 0
0 0 0 0 1 1 1 1 1 1 1 0 0 0 0 0 0 0 0 0 0 0 0 0 0 0 0 0 0 0 0 0 0 0 0 0 0 0 0 0 0 0 0 0
1 1 1 1 1 1 1 1 1 1 1 0 0 0 0 0 0 0 0 0 0 0 0 0 0 1 0 0 0 0 0 0 0 1 1 0 0 0 0 0 0 0 0 0
1 1 1 1 1 1 1 1 1 1 1 0 0 0 0 0 0 0 0 0 0 0 0 1 1 1 0 0 0 0 0 0 0 0 1 0 0 0 0 0 0 0 0 0
1 1 1 1 1 1 1 1 1 1 0 0 0 0 0 0 0 0 0 0 1 1 1 1 1 1 1 0 0 0 0 0 0 0 0 0 0 0 0 0 0 0 0 0
Wind_Speed
6 8 6 6 6 7 8 7 5 4 2 1 2 4 6 5 4 5 5 6 7 7 7 6 5 5 6 6 7 6 5 6 4 3 3 2 2 2 1 1 1 1 1 1
7 7 4 4 4 5 6 6 2 4 2 1 3 4 5 5 5 4 5 6 7 8 8 7 6 6 6 6 6 6 5 5 4 2 1 1 0 1 1 1 1 2 2 3
9 5 2 5 5 5 5 5 4 0 4 4 4 5 6 5 5 5 6 6 6 8 9 9 8 6 6 6 6 5 4 4 3 3 3 2 2 3 3 3 3 2 3 4
6 3 4 6 4 5 3 2 2 3 5 2 3 1 6 6 7 7 7 8 8 8 8 8 7 7 6 6 6 5 5 4 3 3 3 3 3 4 3 3 3 3 4 5
5 3 6 5 3 4 2 1 2 4 4 2 1 3 6 6 7 8 9 8 8 8 8 7 7 7 6 6 5 5 4 4 3 3 3 4 5 4 4 4 4 6 5 6
6 3 4 2 1 1 5 5 5 6 7 1 2 3 3 4 5 8 9 9 9 8 8 7 6 6 5 5 5 5 5 4 4 4 3 4 5 6 7 7 6 6 6 6
5 5 4 3 4 6 6 6 5 4 3 3 3 3 4 4 4 6 9 9 9 8 8 8 7 6 5 5 4 4 4 4 3 3 3 4 5 6 7 7 7 7 7 6
5 4 3 3 5 3 4 6 5 6 5 2 4 0 5 5 5 6 7 7 8 8 8 7 6 6 5 4 4 4 3 2 2 3 3 4 5 6 5 5 7 8 7 7
5 1 3 1 2 5 3 3 4 6 3 2 3 3 6 6 7 8 9 9 9 8 7 7 6 5 5 4 3 3 2 2 2 2 3 4 4 5 6 6 7 7 6 7
4 5 3 4 5 2 5 2 4 4 4 2 2 3 3 9 10 10 10 10 9 8 8 7 6 6 4 4 3 2 2 2 3 4 4 4 4 5 6 7 7 8 8 8
5 6 3 5 5 2 5 4 3 3 5 6 2 3 5 6 8 10 10 9 9 9 9 8 7 6 6 4 4 3 3 3 3 4 4 5 6 6 7 7 8 8 8 9
3 6 5 2 2 2 4 3 4 5 2 4 5 3 7 5 6 8 8 9 9 8 8 8 7 7 5 4 3 3 3 4 4 4 5 6 6 7 7 8 8 8 9 9
4 5 6 5 7 7 5 4 4 4 5 5 6 3 8 6 7 8 8 9 9 8 8 8 7 6 5 4 3 3 3 4 4 5 6 6 7 7 8 8 9 9 9 10
5 6 8 8 5 2 5 6 7 7 7 6 6 3 4 7 8 8 9 10 10 9 9 8 7 6 4 3 3 3 3 4 4 5 6 7 7 8 8 9 9 9 9 10
6 8 8 8 7 7 8 9 8 10 10 10 7 6 2 5 8 8 9 10 10 10 9 8 7 5 4 4 3 4 4 4 5 6 7 7 8 8 9 9 9 9 9 10
5 8 9 10 8 8 10 11 11 10 10 9 9 7 0 3 6 8 9 10 10 9 9 8 6 5 5 4 4 4 4 4 5 6 7 7 8 9 9 9 9 9 9 10
7 8 10 10 6 9 11 8 8 7 7 7 7 2 4 6 7 8 9 9 9 9 8 7 6 5 4 4 3 4 4 4 5 7 8 8 8 9 9 9 9 9 10 10
7 8 8 9 7 10 2 1 3 5 6 6 5 2 4 4 5 6 7 9 9 8 8 7 6 5 4 4 4 4 4 5 6 7 8 8 8 9 9 9 9 9 9 9
6 7 7 7 8 8 4 4 5 6 6 5 5 4 5 4 5 8 8 8 8 7 7 5 5 4 4 4 3 4 5 6 6 7 7 7 8 9 9 10 10 9 9 10
6 7 8 7 8 7 1 6 3 4 6 4 5 6 7 7 7 2 9 9 8 7 6 5 5 5 4 4 3 5 6 6 7 7 7 7 8 9 10 10 10 9 9 10
7 7 10 10 9 6 4 6 6 6 2 3 4 5 8 8 4 4 7 9 9 8 7 6 6 5 4 4 4 6 6 6 7 7 7 8 8 9 9 9 9 9 9 10
7 6 7 6 8 3 6 5 4 4 4 1 3 5 7 7 5 5 6 8 9 8 8 7 6 5 4 4 5 6 7 6 6 7 8 8 8 9 8 8 9 9 9 10
6 5 4 4 2 5 0 2 4 4 5 4 5 5 6 7 7 7 7 8 8 8 7 7 6 6 5 5 6 7 6 6 6 7 8 8 9 8 8 8 9 9 8 8
4 0 4 5 4 2 2 3 5 6 7 7 6 6 6 8 8 8 8 8 8 8 7 7 7 6 5 5 6 6 6 6 7 8 8 8 8 8 7 6 7 7 7 7
4 3 5 7 6 6 2 5 8 8 7 7 6 5 6 7 7 7 7 7 7 7 6 6 7 6 6 5 5 6 6 6 7 8 8 8 8 7 7 7 6 8 8 6
4 5 7 6 6 7 7 9 11 9 8 6 5 4 3 4 5 5 5 5 5 6 6 6 6 6 6 5 6 5 5 6 7 8 8 7 6 6 7 7 7 7 9 8
Wind_Direction
212 247 270 317 313 308 308 305 323 46 57 303 111 117 120 122 133 137 134 131 124 120 120 123 118 121 133 138 141 145 147 150 165 164 181 178 176 184 181 174 128 235 299 321
234 247 292 305 280 268 272 285 312 116 112 264 131 120 122 137 144 143 139 133 134 135 136 139 142 148 146 143 141 148 161 159 177 159 189 216 237 232 213 239 183 252 273 283
267 330 334 271 262 265 274 302 321 127 152 176 194 152 141 148 154 151 150 149 151 149 149 150 148 151 153 149 153 151 154 160 172 173 195 185 204 228 223 235 232 252 273 272
262 276 279 278 282 286 293 358 274 207 226 156 270 220 134 158 166 166 164 161 162 154 151 151 155 159 160 156 157 159 168 173 180 206 223 245 265 279 297 288 289 283 274 280
273 273 277 284 329 288 28 122 220 230 244 226 193 294 116 159 174 173 171 169 165 161 162 162 167 167 166 167 170 172 176 184 193 223 233 257 272 288 292 293 289 286 279 274
273 251 273 324 70 162 147 176 190 221 241 229 50 298 116 146 170 163 165 168 170 170 172 173 173 173 178 182 188 189 183 195 207 226 242 263 284 292 298 294 295 285 282 278
233 207 177 195 185 170 216 253 252 230 226 76 98 276 81 115 157 166 167 171 176 180 183 183 185 187 191 195 196 199 195 204 215 234 256 272 283 285 280 289 295 295 294 292
263 227 167 213 269 265 241 279 310 321 340 66 165 232 102 136 159 175 179 179 181 185 185 189 191 190 193 188 189 193 196 218 238 253 270 282 284 284 295 304 305 299 298 305
278 280 122 171 263 273 234 265 332 286 283 278 113 128 142 162 181 187 186 187 188 188 183 184 181 179 179 175 174 182 192 211 240 264 274 273 284 297 305 300 281 291 302 298
286 283 164 151 183 166 298 256 231 287 319 310 130 166 146 171 184 186 189 188 183 180 176 172 169 167 161 159 160 174 214 248 269 269 280 291 291 288 289 291 303 300 296 295
261 270 213 202 236 216 187 208 274 299 315 312 358 89 98 166 178 183 184 183 174 175 171 168 166 164 168 178 189 208 239 256 266 281 286 292 292 295 291 288 292 295 293 294
244 276 278 239 101 311 264 267 244 284 300 298 302 93 123 165 179 188 179 170 167 168 166 166 167 171 182 195 214 234 265 273 277 283 284 288 294 294 294 296 299 296 292 290
187 253 257 198 175 188 212 209 238 268 269 272 289 90 133 169 188 189 182 170 166 169 168 167 173 183 196 209 229 258 273 284 291 295 289 291 293 295 295 298 297 295 292 290
234 259 280 294 313 272 233 215 218 243 263 270 273 295 174 189 193 188 184 178 173 173 175 178 181 192 201 218 243 261 274 289 297 296 294 296 296 297 296 297 297 294 292 291
240 259 268 279 279 270 269 264 240 240 266 281 289 290 278 192 196 187 183 182 180 181 184 186 192 196 209 224 238 257 276 287 295 294 294 296 297 297 295 296 296 295 292 289
234 269 271 266 260 260 263 263 260 250 254 261 270 275 280 155 177 180 185 189 193 193 191 191 196 203 219 234 250 263 273 287 290 291 294 298 297 296 297 297 296 293 290 289
232 249 262 266 258 260 256 255 249 242 238 250 261 285 145 174 188 193 192 196 201 197 193 195 201 207 220 234 245 262 278 284 285 287 292 295 296 297 300 301 299 295 294 291
248 246 255 262 255 256 291 78 270 259 244 237 259 214 188 194 189 197 197 200 201 197 195 197 203 204 213 218 229 254 274 278 283 287 292 297 298 299 302 300 297 296 293 294
235 232 247 256 250 255 237 189 214 234 250 220 227 209 176 162 189 204 196 199 200 193 193 193 199 203 207 223 236 257 272 280 285 290 297 300 301 300 299 299 299 298 296 294
198 227 245 241 258 262 220 122 160 239 244 171 199 201 179 184 238 202 164 186 193 189 185 188 191 199 206 217 228 254 273 285 292 299 301 301 298 296 296 298 298 298 297 292
197 206 233 242 251 258 85 131 181 237 3 101 203 210 193 210 262 90 151 175 185 186 187 188 196 208 216 217 227 255 275 285 296 301 297 294 294 292 290 292 293 295 294 294
249 230 222 239 248 256 112 165 226 355 29 295 241 228 214 217 203 163 168 175 182 187 190 193 199 211 212 217 232 257 272 286 293 292 290 292 293 293 295 293 292 292 291 289
250 296 293 272 318 47 94 286 328 338 303 295 272 255 228 221 210 197 188 188 192 196 196 198 204 214 215 217 234 259 277 285 286 287 288 292 295 293 292 293 292 290 287 287
188 241 267 264 261 318 307 308 311 298 291 292 285 264 237 225 216 205 199 196 197 197 195 199 209 221 224 226 236 253 268 274 277 282 287 290 290 291 295 294 291 294 297 298
323 261 264 262 286 293 296 0 348 332 311 297 288 267 242 228 219 205 202 202 201 197 197 202 212 225 232 230 238 249 258 264 273 281 284 285 288 294 294 289 292 292 294 302
329 312 293 306 355 324 325 343 340 332 327 319 302 274 238 222 219 208 202 198 199 200 196 204 215 228 235 233 240 248 252 255 267 276 281 287 292 296 293 295 292 252 250 256